Flag for U.S.A. Weather past 2 weeks in Bristol, Tennessee, U.S.A.

Now
61 °F

Sunny.


Feels Like: 61 °F
Forecast: 36 / 65 °F
Wind: No wind

Location: Abingdon-Southwest Abingdon

Current Time: Apr 1, 2015 at 1:28:37 PM

Latest Report: Apr 1, 2015 at 12:55 PM


Visibility: 10 mi

Pressure: 30.13 "Hg

Humidity: 27%

Dew point: 26 °F

Location of BristolLocation

Historic Weather in Bristol — Graph

°F

Bristol temperature yesterday

Maximum temperature yesterday: 70 °F (at 6:35 PM)
Minimum temperature yesterday: 35 °F (at 6:55 AM)
Average temperature yesterday: 56 °F

Past Weeks' High & Low Weather Summary

 TemperatureHumidityPressure
High74 °F (Mar 25, 4:15 PM)100% (Mar 20, 4:16 AM)30.36 "Hg (Mar 20, 4:16 AM)
Low20 °F (Mar 29, 7:15 AM)8% (Mar 29, 3:35 PM)29.70 "Hg (Mar 26, 6:35 PM)
Average50 °F59%30.06 "Hg
* Reported Mar 17 12:15 PM — Apr 1 12:15 PM, Bristol, Weather by CustomWeather, © 2015

Note: Actual official high and low records may vary slightly from our data, if they occured in-between our weather recording intervals... More about our weather records

Advertising

Bristol weather history for previous 24 hours

 ConditionsComfort  
Time TempWeatherWind HumidityBarometerVisibility
12:15 PM
Wed, Apr 1
59 °FSunny.3 mph29%30.14 "Hg10 mi
11:55 AM58 °FSunny.No wind31%30.15 "Hg10 mi
11:35 AM57 °FSunny.5 mph32%30.15 "Hg10 mi
11:15 AM56 °FSunny.5 mph36%30.15 "Hg10 mi
10:55 AM55 °FSunny.No wind36%30.15 "Hg10 mi
10:35 AM54 °FSunny.3 mph41%30.16 "Hg10 mi
10:15 AM52 °FSunny.No wind46%30.14 "Hg10 mi
9:55 AM51 °FSunny.No wind49%30.13 "Hg10 mi
9:35 AM50 °FSunny.No wind54%30.11 "Hg10 mi
9:15 AM49 °FSunny.No wind60%30.11 "Hg10 mi
8:55 AM46 °FSunny.No wind66%30.10 "Hg10 mi
8:15 AM40 °FSunny.No wind80%30.09 "Hg10 mi
7:55 AM39 °FClear.No wind81%30.08 "Hg10 mi
7:35 AM40 °FClear.No wind80%30.07 "Hg10 mi
7:15 AM38 °FClear.No wind82%30.07 "Hg10 mi
6:55 AM39 °FClear.No wind81%30.06 "Hg10 mi
6:35 AM39 °FClear.No wind80%30.05 "Hg10 mi
6:15 AM42 °FClear.No wind75%30.03 "Hg10 mi
5:55 AM43 °FClear.No wind74%30.02 "Hg10 mi
5:35 AM43 °FClear.No wind71%30.01 "Hg10 mi
5:15 AM44 °FClear.No wind68%29.99 "Hg10 mi
4:55 AM45 °FClear.No wind65%29.99 "Hg10 mi
4:35 AM45 °FClear.No wind66%29.97 "Hg10 mi
4:15 AM48 °FClear.No wind58%29.96 "Hg10 mi
3:55 AM47 °FClear.No wind60%29.95 "Hg10 mi
3:35 AM50 °FClear.3 mph53%29.95 "Hg10 mi
3:15 AM52 °FClear.3 mph51%29.95 "Hg10 mi
2:55 AM53 °FClear.5 mph49%29.95 "Hg10 mi
2:35 AM53 °FClear.8 mph45%29.96 "Hg10 mi
2:15 AM55 °FClear.No wind41%29.95 "Hg10 mi
1:55 AM56 °FClear.No wind38%29.95 "Hg10 mi
1:35 AM57 °FClear.8 mph36%29.94 "Hg10 mi
1:15 AM57 °FClear.6 mph35%29.94 "Hg10 mi
12:55 AM58 °FClear.8 mph34%29.94 "Hg10 mi
12:35 AM59 °FClear.5 mph31%29.94 "Hg10 mi
12:15 AM60 °FClear.6 mph31%29.93 "Hg10 mi
11:55 PM
Tue, Mar 31
61 °FClear.6 mph31%29.92 "Hg10 mi
11:15 PM64 °FClear.14 mph30%29.90 "Hg10 mi
10:55 PM65 °FClear.12 mph30%29.89 "Hg10 mi
10:35 PM66 °FPassing clouds.9 mph29%29.88 "Hg10 mi
10:15 PM66 °FPassing clouds.14 mph30%29.88 "Hg10 mi
9:55 PM66 °FPartly cloudy.10 mph31%29.86 "Hg10 mi
9:35 PM66 °FPartly cloudy.7 mph32%29.85 "Hg10 mi
9:15 PM66 °FPassing clouds.6 mph33%29.85 "Hg10 mi
8:55 PM67 °FPassing clouds.6 mph31%29.83 "Hg10 mi
8:35 PM67 °FPartly sunny.8 mph30%29.83 "Hg10 mi
8:15 PM68 °FScattered clouds.9 mph28%29.82 "Hg10 mi
7:55 PM69 °FPartly sunny.13 mph27%29.82 "Hg10 mi
7:35 PM69 °FPartly sunny.15 mph33%29.81 "Hg10 mi
7:15 PM69 °FPartly sunny.10 mph35%29.81 "Hg10 mi
6:55 PM69 °FScattered clouds.12 mph36%29.81 "Hg10 mi
6:35 PM70 °FScattered clouds.15 mph33%29.80 "Hg10 mi
6:15 PM70 °FScattered clouds.15 mph33%29.81 "Hg10 mi
5:55 PM69 °FPartly sunny.14 mph34%29.81 "Hg10 mi
5:15 PM68 °FPartly sunny.18 mph34%29.82 "Hg10 mi
4:55 PM69 °FBroken clouds.17 mph31%29.82 "Hg10 mi
4:15 PM68 °FBroken clouds.16 mph30%29.83 "Hg10 mi
3:55 PM69 °FSunny.23 mph29%29.84 "Hg10 mi
3:15 PM69 °FScattered clouds.17 mph28%29.85 "Hg10 mi
3:00 PM68 °FScattered clouds.17 mph27%29.86 "Hg10 mi
2:35 PM67 °FSunny.13 mph30%29.88 "Hg10 mi
2:15 PM67 °FSunny.17 mph29%29.89 "Hg10 mi
1:55 PM66 °FSunny.15 mph29%29.90 "Hg10 mi
1:35 PM65 °FSunny.20 mph30%29.91 "Hg10 mi
1:15 PM65 °FSunny.17 mph30%29.92 "Hg10 mi
Weather by CustomWeather, © 2015

See weather overviewHow to use our weather pages